• In Belarus
  • List of Countries
  • For 7 days
  • Water Temperature
  • Satellite Maps
  • Weather Map
  • Weather Widgets
  • user-avatar
    Login

    Hourly Weather Wiktoria

    Today, 24 January, Wednesday

    Time Temperature Precipitation Wind Pressure Humidity
    00:00 +21°C° 0 mm 4 mps 744 mmHg 57%
    01:00 +21°C° 0 mm 4 mps 744 mmHg 61%
    02:00 +20°C° 0.1 mm 3 mps 744 mmHg 64%
    03:00 +20°C° 0.1 mm 3 mps 744 mmHg 67%
    04:00 +20°C° 0 mm 2 mps 744 mmHg 70%
    05:00 +21°C° 0.4 mm 2 mps 744 mmHg 69%
    06:00 +21°C° 0.4 mm 2 mps 744 mmHg 68%
    07:00 +23°C° 0.4 mm 2 mps 745 mmHg 68%
    08:00 +26°C° 0.1 mm 2 mps 745 mmHg 59%
    09:00 +29°C° 0.1 mm 2 mps 745 mmHg 50%
    10:00 +32°C° 0.1 mm 2 mps 745 mmHg 41%
    11:00 +35°C° 0 mm 2 mps 744 mmHg 36%
    12:00 +36°C° 0 mm 2 mps 744 mmHg 31%
    13:00 +38°C° 0 mm 2 mps 743 mmHg 26%
    14:00 +39°C° 0 mm 2 mps 743 mmHg 24%
    15:00 +39°C° 0 mm 3 mps 743 mmHg 23%
    16:00 +39°C° 0 mm 3 mps 742 mmHg 22%
    17:00 +37°C° 0 mm 4 mps 742 mmHg 27%
    18:00 +35°C° 0 mm 4 mps 742 mmHg 32%
    19:00 +33°C° 0 mm 5 mps 742 mmHg 37%
    20:00 +30°C° 0.1 mm 5 mps 743 mmHg 43%
    21:00 +28°C° 0.1 mm 5 mps 743 mmHg 49%
    22:00 +26°C° 0.1 mm 5 mps 744 mmHg 55%
    23:00 +25°C° 0 mm 4 mps 744 mmHg 59%

    Tomorrow, 25 January, Thursday

    Time Temperature Precipitation Wind Pressure Humidity
    00:00 +25°C° 0 mm 4 mps 744 mmHg 63%
    01:00 +23°C° 0 mm 4 mps 744 mmHg 66%
    02:00 +23°C° 0 mm 4 mps 744 mmHg 68%
    03:00 +23°C° 0 mm 4 mps 744 mmHg 69%
    04:00 +23°C° 0 mm 4 mps 744 mmHg 70%
    05:00 +23°C° 0 mm 4 mps 744 mmHg 68%
    06:00 +25°C° 0 mm 4 mps 744 mmHg 66%
    07:00 +25°C° 0 mm 4 mps 744 mmHg 64%
    08:00 +28°C° 0 mm 4 mps 744 mmHg 56%
    09:00 +31°C° 0 mm 3 mps 744 mmHg 48%
    10:00 +34°C° 0 mm 3 mps 744 mmHg 40%
    11:00 +36°C° 0 mm 3 mps 744 mmHg 36%
    12:00 +38°C° 0 mm 3 mps 744 mmHg 32%
    13:00 +39°C° 0 mm 3 mps 743 mmHg 27%
    14:00 +39°C° 0 mm 2 mps 743 mmHg 27%
    15:00 +39°C° 0 mm 2 mps 742 mmHg 27%
    16:00 +39°C° 0 mm 1 mps 742 mmHg 27%
    17:00 +37°C° 0 mm 1 mps 742 mmHg 29%
    18:00 +37°C° 0 mm 2 mps 742 mmHg 32%
    19:00 +36°C° 0 mm 2 mps 742 mmHg 34%
    20:00 +34°C° 0 mm 3 mps 743 mmHg 39%
    21:00 +31°C° 0 mm 3 mps 743 mmHg 45%
    22:00 +29°C° 0 mm 4 mps 744 mmHg 50%
    23:00 +28°C° 0 mm 4 mps 744 mmHg 54%

    Day after tomorrow, 26 January, Friday

    Time Temperature Precipitation Wind Pressure Humidity
    00:00 +28°C° 0 mm 3 mps 744 mmHg 58%
    01:00 +27°C° 0 mm 3 mps 744 mmHg 62%
    02:00 +26°C° 0 mm 3 mps 744 mmHg 63%
    03:00 +26°C° 0 mm 3 mps 744 mmHg 65%
    04:00 +26°C° 0 mm 3 mps 744 mmHg 66%
    05:00 +26°C° 0 mm 3 mps 744 mmHg 63%
    06:00 +27°C° 0 mm 3 mps 745 mmHg 60%
    07:00 +28°C° 0 mm 4 mps 745 mmHg 57%
    08:00 +30°C° 0 mm 4 mps 745 mmHg 50%
    09:00 +34°C° 0 mm 4 mps 745 mmHg 43%
    10:00 +36°C° 0 mm 4 mps 745 mmHg 37%
    11:00 +38°C° 0 mm 4 mps 744 mmHg 32%
    12:00 +41°C° 0 mm 4 mps 744 mmHg 28%
    13:00 +42°C° 0 mm 3 mps 743 mmHg 24%
    14:00 +40°C° 0.3 mm 3 mps 743 mmHg 28%
    15:00 +39°C° 0.3 mm 3 mps 743 mmHg 32%
    16:00 +37°C° 0.3 mm 3 mps 742 mmHg 36%
    17:00 +35°C° 0.6 mm 3 mps 742 mmHg 44%
    18:00 +33°C° 0.6 mm 4 mps 743 mmHg 52%
    19:00 +30°C° 0.6 mm 5 mps 743 mmHg 61%
    20:00 +29°C° 0.3 mm 5 mps 743 mmHg 63%
    21:00 +28°C° 0.3 mm 5 mps 744 mmHg 65%
    22:00 +27°C° 0.3 mm 4 mps 744 mmHg 68%
    23:00 +27°C° 0.9 mm 5 mps 744 mmHg 70%

    27 January, Saturday

    Time Temperature Precipitation Wind Pressure Humidity
    00:00 +26°C° 0.9 mm 5 mps 744 mmHg 73%
    01:00 +26°C° 0.9 mm 5 mps 744 mmHg 75%
    02:00 +26°C° 0.1 mm 4 mps 744 mmHg 75%
    03:00 +25°C° 0.1 mm 4 mps 744 mmHg 75%
    04:00 +25°C° 0.1 mm 3 mps 744 mmHg 75%
    05:00 +26°C° 0 mm 4 mps 744 mmHg 72%
    06:00 +27°C° 0 mm 4 mps 745 mmHg 70%
    07:00 +27°C° 0 mm 4 mps 745 mmHg 67%
    08:00 +30°C° 0.1 mm 5 mps 745 mmHg 60%
    09:00 +33°C° 0.1 mm 5 mps 745 mmHg 53%
    10:00 +36°C° 0.1 mm 5 mps 745 mmHg 46%
    11:00 +39°C° 0 mm 5 mps 745 mmHg 41%
    12:00 +40°C° 0 mm 4 mps 744 mmHg 35%
    13:00 +42°C° 0 mm 4 mps 744 mmHg 29%
    14:00 +43°C° 0 mm 3 mps 743 mmHg 28%
    15:00 +43°C° 0 mm 3 mps 742 mmHg 27%
    16:00 +43°C° 0 mm 3 mps 742 mmHg 26%
    17:00 +42°C° 0 mm 3 mps 742 mmHg 29%
    18:00 +39°C° 0 mm 3 mps 742 mmHg 31%
    19:00 +38°C° 0 mm 4 mps 742 mmHg 34%
    20:00 +37°C° 0 mm 4 mps 743 mmHg 38%
    21:00 +35°C° 0 mm 4 mps 743 mmHg 42%
    22:00 +34°C° 0 mm 4 mps 744 mmHg 46%
    23:00 +33°C° 0.1 mm 4 mps 744 mmHg 49%

    28 January, Sunday

    Time Temperature Precipitation Wind Pressure Humidity
    00:00 +33°C° 0.1 mm 5 mps 744 mmHg 53%
    01:00 +32°C° 0.1 mm 5 mps 744 mmHg 56%
    02:00 +30°C° 0.1 mm 5 mps 744 mmHg 58%
    03:00 +30°C° 0.1 mm 5 mps 744 mmHg 60%
    04:00 +29°C° 0.1 mm 5 mps 743 mmHg 62%
    05:00 +29°C° 0 mm 5 mps 744 mmHg 61%
    06:00 +29°C° 0 mm 5 mps 744 mmHg 61%
    07:00 +29°C° 0 mm 5 mps 744 mmHg 60%
    08:00 +32°C° 0 mm 6 mps 744 mmHg 53%
    09:00 +34°C° 0 mm 6 mps 744 mmHg 46%
    10:00 +36°C° 0 mm 6 mps 744 mmHg 40%
    11:00 +39°C° 0 mm 6 mps 744 mmHg 36%
    12:00 +41°C° 0 mm 6 mps 743 mmHg 32%
    13:00 +44°C° 0 mm 6 mps 742 mmHg 28%
    14:00 +45°C° 0 mm 5 mps 741 mmHg 26%
    15:00 +45°C° 0 mm 5 mps 741 mmHg 25%
    16:00 +46°C° 0 mm 5 mps 740 mmHg 23%
    17:00 +43°C° 0 mm 5 mps 740 mmHg 25%
    18:00 +42°C° 0 mm 4 mps 740 mmHg 27%
    19:00 +41°C° 0 mm 4 mps 740 mmHg 29%
    20:00 +40°C° 0.3 mm 5 mps 740 mmHg 33%
    21:00 +37°C° 0.3 mm 5 mps 741 mmHg 37%
    22:00 +35°C° 0.3 mm 6 mps 741 mmHg 41%
    23:00 +34°C° 1 mm 5 mps 741 mmHg 47%

    29 January, Monday

    Time Temperature Precipitation Wind Pressure Humidity
    00:00 +33°C° 1 mm 4 mps 741 mmHg 53%
    01:00 +30°C° 1 mm 4 mps 741 mmHg 59%
    02:00 +30°C° 1.3 mm 4 mps 741 mmHg 62%
    03:00 +29°C° 1.3 mm 4 mps 741 mmHg 65%
    04:00 +28°C° 1.3 mm 5 mps 741 mmHg 68%
    05:00 +29°C° 0.4 mm 5 mps 742 mmHg 67%
    06:00 +29°C° 0.4 mm 5 mps 742 mmHg 66%
    07:00 +29°C° 0.4 mm 5 mps 742 mmHg 66%
    08:00 +30°C° 0.4 mm 5 mps 743 mmHg 60%
    09:00 +33°C° 0.4 mm 5 mps 743 mmHg 55%
    10:00 +34°C° 0.4 mm 5 mps 743 mmHg 50%
    11:00 +35°C° 0.3 mm 4 mps 742 mmHg 47%
    12:00 +36°C° 0.3 mm 4 mps 742 mmHg 44%
    13:00 +37°C° 0.3 mm 4 mps 741 mmHg 41%
    14:00 +35°C° 2 mm 5 mps 741 mmHg 50%
    15:00 +32°C° 2 mm 7 mps 741 mmHg 59%
    16:00 +28°C° 2 mm 8 mps 741 mmHg 68%
    17:00 +26°C° 1.1 mm 8 mps 741 mmHg 70%
    18:00 +24°C° 1.1 mm 8 mps 741 mmHg 72%
    19:00 +22°C° 1.1 mm 8 mps 742 mmHg 75%
    20:00 +21°C° 0.2 mm 8 mps 742 mmHg 73%
    21:00 +20°C° 0.2 mm 8 mps 743 mmHg 71%
    22:00 +18°C° 0.2 mm 8 mps 743 mmHg 69%
    23:00 +17°C° 0 mm 8 mps 743 mmHg 68%
    Show more